This demonstration page uses our WeatherBlox Daily Observations layout. Learn more.

Hourly Observations for December 2, 2018

Temp ( °F °C ) Dew Point ( °F °C ) Humidity (%) Winds ( mph kmh ) Pressure ( in mb ) Visibility ( mi km ) Precip ( " mm )
12:15 am 00:15 Windy with Snow Likely 30 -1 30 -1.3 98 98 N 24 39 29.65 1004 1.75 2.816345 0 0
12:35 am 00:35 Cloudy with Light Snow 30 -1 29 -1.5 96 96 NNW 18 30 29.65 1004 2.5 4.02335 0 0
12:55 am 00:55 Cloudy with Light Snow 30 -1 29 -1.7 95 95 NNW 18 30 29.71 1006 3 4.82802 0 0
1:15 am 01:15 Cloudy with Light Snow 30 -1 29 -1.7 95 95 N 18 30 29.71 1006 7 11.26538 0 0
1:35 am 01:35 Windy with Snow Likely 30 -1 29 -1.8 94 94 N 21 33 29.71 1006 5 8.0467 0 0
1:55 am 01:55 Windy with Snow Likely 30 -1.1 29 -1.8 95 95 NNW 20 31 29.71 1006 2.5 4.02335 0 0
2:15 am 02:15 Cloudy 30 -1 29 -1.8 94 94 N 22 35 29.74 1007 7 11.26538 0 0
2:35 am 02:35 Cloudy 30 -1 29 -1.9 94 94 NNW 21 33 29.74 1007 10 16.0934 0 0
2:55 am 02:55 Cloudy 30 -1 28 -2.2 92 92 N 16 26 29.74 1007 7 11.26538 0 0
3:15 am 03:15 Cloudy 30 -1.1 28 -2.5 90 90 N 23 37 29.74 1007 7 11.26538 0 0
3:35 am 03:35 Cloudy 30 -1.2 28 -2.5 91 91 N 22 35 29.74 1007 10 16.0934 0 0
3:55 am 03:55 Cloudy 30 -1.2 28 -2.3 92 92 N 16 26 29.74 1007 7 11.26538 0 0
4:15 am 04:15 Cloudy 30 -1.2 28 -2 94 94 N 22 35 29.77 1008 10 16.0934 0 0
4:35 am 04:35 Cloudy 30 -1.3 28 -2 95 95 N 18 30 29.77 1008 10 16.0934 0 0
4:55 am 04:55 Cloudy 30 -1.3 28 -2 95 95 NNW 17 28 29.77 1008 10 16.0934 0 0
5:15 am 05:15 Cloudy 30 -1.3 28 -2.3 93 93 N 17 28 29.77 1008 10 16.0934 0 0
5:35 am 05:35 Cloudy 29 -1.4 28 -2.4 93 93 N 22 35 29.8 1009 10 16.0934 0 0
5:55 am 05:55 Cloudy 29 -1.5 27 -2.7 92 92 N 23 37 29.8 1009 10 16.0934 0 0
6:15 am 06:15 Cloudy 29 -1.7 27 -2.8 92 92 N 21 33 29.8 1009 10 16.0934 0 0
6:35 am 06:35 Cloudy 29 -1.8 27 -3 92 92 N 17 28 29.8 1009 10 16.0934 0 0
6:55 am 06:55 Cloudy 28 -2 27 -3 93 93 N 21 33 29.83 1010 10 16.0934 0 0
7:15 am 07:15 Cloudy 28 -2 26 -3.1 92 92 N 14 22 29.83 1010 10 16.0934 0 0
7:35 am 07:35 Cloudy 28 -2 26 -3.1 92 92 N 17 28 29.83 1010 7 11.26538 0 0
7:55 am 07:55 Cloudy 28 -2 26 -3.5 90 90 NNW 15 24 29.85 1011 10 16.0934 0 0
8:15 am 08:15 Cloudy with Light Snow 28 -2.2 26 -3.6 90 90 N 15 24 29.85 1011 2 3.21868 0 0
8:35 am 08:35 Cloudy with Light Snow 28 -2.5 26 -3.4 94 94 NNW 16 26 29.91 1013 1.25 2.011675 0 0
8:55 am 08:55 Cloudy with Light Snow 28 -2.5 26 -3.1 96 96 N 15 24 29.91 1013 1.5 2.41401 0 0
9:15 am 09:15 Cloudy with Light Snow 28 -2.5 26 -3.5 93 93 N 15 24 29.91 1013 2 3.21868 0 0
9:35 am 09:35 Cloudy with Light Snow 27 -2.6 26 -3.5 94 94 N 15 24 29.91 1013 1 1.60934 0 0
9:55 am 09:55 Cloudy with Light Snow 28 -2.5 26 -3.6 92 92 N 17 28 29.91 1013 2.5 4.02335 0 0
10:15 am 10:15 Cloudy 28 -2.5 25 -4 90 90 N 18 30 29.91 1013 7 11.26538 0 0
10:35 am 10:35 Cloudy 27 -2.6 25 -4 90 90 N 15 24 29.91 1013 7 11.26538 0 0
10:55 am 10:55 Cloudy with Mist and Fog 27 -2.8 25 -4.1 91 91 N 14 22 29.94 1014 3 4.82802 0 0
11:15 am 11:15 Cloudy with Light Snow 26 -3.1 25 -4.1 93 93 N 10 17 29.94 1014 4 6.43736 0 0
11:35 am 11:35 Cloudy 27 -3 25 -4 93 93 N 14 22 29.94 1014 10 16.0934 0 0
11:55 am 11:55 Cloudy 26 -3.1 24 -4.6 90 90 N 15 24 29.94 1014 10 16.0934 0 0
12:15 pm 12:15 Cloudy 26 -3.1 24 -4.6 90 90 N 14 22 29.94 1014 10 16.0934 0 0
12:35 pm 12:35 Cloudy 27 -3 24 -4.6 89 89 N 14 22 29.94 1014 10 16.0934 0 0
12:55 pm 12:55 Cloudy 27 -3 24 -4.5 90 90 N 13 20 29.94 1014 10 16.0934 0 0
1:15 pm 13:15 Cloudy 26 -3.1 24 -4.5 90 90 N 14 22 29.94 1014 10 16.0934 0 0
1:35 pm 13:35 Cloudy 26 -3.3 23 -4.8 90 90 N 14 22 29.94 1014 10 16.0934 0 0
1:55 pm 13:55 Cloudy with Light Snow 26 -3.2 24 -4.7 90 90 N 15 24 29.97 1015 7 11.26538 0 0
2:15 pm 14:15 Cloudy with Light Snow 26 -3.3 24 -4.7 90 90 N 13 20 29.97 1015 5 8.0467 0 0
2:35 pm 14:35 Cloudy with Light Snow 26 -3.3 24 -4.6 91 91 N 12 19 29.97 1015 5 8.0467 0 0
2:55 pm 14:55 Cloudy with Light Snow 26 -3.3 24 -4.6 91 91 N 13 20 30 1016 4 6.43736 0 0
3:15 pm 15:15 Cloudy with Light Snow 26 -3.5 24 -4.3 94 94 N 12 19 30 1016 2 3.21868 0 0
3:35 pm 15:35 Cloudy with Light Snow 26 -3.6 24 -4.7 92 92 N 10 17 30.03 1017 2.5 4.02335 0 0
3:55 pm 15:55 Cloudy with Light Snow 25 -3.8 24 -4.7 94 94 N 14 22 30.03 1017 1.5 2.41401 0 0
4:15 pm 16:15 Cloudy with Light Snow 25 -4 24 -4.7 95 95 N 10 17 30.03 1017 1 1.60934 0 0
4:35 pm 16:35 Cloudy with Light Snow 25 -4.1 24 -4.5 97 97 N 9 15 30.09 1019 0.75 1.207005 0 0
4:55 pm 16:55 Cloudy with Light Snow 25 -4.1 24 -4.5 97 97 N 9 15 30.09 1019 2 3.21868 0 0
5:15 pm 17:15 Cloudy with Light Snow 25 -4 24 -4.4 97 97 N 12 19 30.06 1018 2 3.21868 0 0
5:35 pm 17:35 Cloudy with Light Snow 25 -4.1 24 -4.6 96 96 N 10 17 30.09 1019 7 11.26538 0 0
5:55 pm 17:55 Mostly Cloudy with Scattered Snow Showers 24 -4.3 23 -5.2 94 94 N 12 19 30.12 1020 10 16.0934 0 0
6:15 pm 18:15 Cloudy with Light Snow 24 -4.3 22 -5.3 93 93 N 12 19 30.12 1020 10 16.0934 0 0
6:35 pm 18:35 Cloudy with Light Snow 24 -4.5 23 -5.1 96 96 N 13 20 30.12 1020 7 11.26538 0 0
6:55 pm 18:55 Cloudy with Light Snow 24 -4.6 23 -5.1 96 96 N 15 24 30.12 1020 5 8.0467 0 0
7:15 pm 19:15 Cloudy with Light Snow 24 -4.6 23 -5.1 96 96 N 14 22 30.15 1021 5 8.0467 0 0
7:35 pm 19:35 Cloudy 24 -4.6 23 -5.2 96 96 N 15 24 30.15 1021 10 16.0934 0 0
7:55 pm 19:55 Cloudy 23 -4.8 22 -5.5 95 95 N 14 22 30.15 1021 10 16.0934 0 0
8:15 pm 20:15 Cloudy 24 -4.7 23 -5.2 96 96 N 14 22 30.15 1021 10 16.0934 0 0
8:35 pm 20:35 Cloudy 23 -4.8 22 -5.5 95 95 N 15 24 30.18 1022 10 16.0934 0 0
8:55 pm 20:55 Cloudy 23 -4.8 22 -5.5 95 95 N 14 22 30.18 1022 10 16.0934 0 0
9:15 pm 21:15 Cloudy 24 -4.7 22 -5.3 96 96 N 14 22 30.18 1022 10 16.0934 0 0
9:35 pm 21:35 Cloudy 24 -4.7 22 -5.3 96 96 N 10 17 30.18 1022 10 16.0934 0 0
9:55 pm 21:55 Cloudy 24 -4.7 22 -5.3 96 96 N 15 24 30.21 1023 10 16.0934 0 0
10:15 pm 22:15 Cloudy 23 -4.8 22 -5.6 94 94 N 16 26 30.21 1023 10 16.0934 0 0
10:35 pm 22:35 Cloudy 23 -5 22 -5.5 96 96 N 15 24 30.21 1023 10 16.0934 0 0
10:55 pm 22:55 Cloudy 23 -5 22 -5.6 96 96 N 14 22 30.21 1023 10 16.0934 0 0
11:15 pm 23:15 Cloudy 23 -5 21 -6 93 93 N 13 20 30.21 1023 10 16.0934 0 0
11:35 pm 23:35 Cloudy 23 -5.1 22 -5.8 95 95 N 10 17 30.24 1024 10 16.0934 0 0
11:55 pm 23:55 Cloudy 23 -5.2 21 -6 94 94 N 15 24 30.24 1024 10 16.0934 0 0

Powered by AerisWeather